, MS

(GMT )
West Delta

Weather History for KDLP - December, 2013

Change the Weather History Date:

Friday, December 6, 2013

  Actual Average Record
Temperature  
Mean Temperature 76 °F -  
Max Temperature 80 °F - - ()
Min Temperature 71 °F - - ()
Cooling Degree Days 10    
Growing Degree Days 26 (Base 50)    
Moisture  
Dew Point 73 °F    
Average Humidity 92    
Maximum Humidity 100    
Minimum Humidity 78    
Precipitation  
Precipitation 0.00 in - - ()
Sea Level Pressure  
Sea Level Pressure 30.00 in    
Wind  
Wind Speed 16 mph (South)    
Max Wind Speed 20 mph    
Max Gust Speed 21 mph    
Visibility 4 miles    
Events Fog    
T = Trace of Precipitation, MM = Missing Value Source: NWS Daily Summary

Daily Weather History Graph

Daily Weather History Graph

Search for Another Location

Airport or City:

Trip Planner

Search our weather history database for the weather conditions in past years. The results will help you decide how hot, cold, wet, or windy it might be!

Date:

Astronomy

Dec. 06, 2013 Rise Set
Actual Time 6:38 AM CST 5:00 PM CST
Civil Twilight 6:12 AM CST 5:26 PM CST
Nautical Twilight 5:43 AM CST 5:55 PM CST
Astronomical Twilight 5:14 AM CST 6:24 PM CST
Moon 9:54 AM CST (12/6) 9:19 PM CST (12/6)
Length of Visible Light 11h 13m
Length of Day
10h 21m
Waxing Crescent, 19% of the Moon is Illuminated
Dec 6
Waxing Crescent
Dec 9
First Quarter
Dec 17
Full
Dec 25
Last Quarter
Jan 1
New

Hourly Weather History & Observations

Time (CST) Temp. Heat Index Dew Point Humidity Pressure Visibility Wind Dir Wind Speed Gust Speed Precip Events Conditions
12:15 AM 75.2 °F - 73.4 °F 94% 30.00 in 1.0 mi South 19.6 mph - N/A   Overcast
12:35 AM 75.2 °F - 73.4 °F 94% 29.99 in 1.8 mi South 19.6 mph - N/A   Overcast
12:55 AM 75.2 °F - 73.4 °F 94% 29.99 in 2.0 mi SSE 17.3 mph - N/A   Overcast
1:15 AM 75.2 °F - 73.4 °F 94% 29.98 in 1.5 mi South 17.3 mph - N/A   Overcast
1:35 AM 73.4 °F - 73.4 °F 100% 29.97 in 0.5 mi SSE 18.4 mph - N/A   Overcast
1:55 AM 73.4 °F - 73.4 °F 100% 29.97 in 3.0 mi South 17.3 mph - N/A   Overcast
2:15 AM 75.2 °F - 73.4 °F 94% 29.96 in 8.0 mi South 19.6 mph - N/A   Overcast
2:35 AM 75.2 °F - 73.4 °F 94% 29.97 in 8.0 mi South 18.4 mph - N/A   Mostly Cloudy
2:55 AM 75.2 °F - 73.4 °F 94% 29.97 in 9.0 mi SSE 13.8 mph 20.7 mph N/A   Overcast
3:15 AM 75.2 °F - 73.4 °F 94% 29.97 in 6.0 mi South 17.3 mph - N/A   Overcast
3:35 AM 75.2 °F - 73.4 °F 94% 29.97 in 4.0 mi South 18.4 mph - N/A   Overcast
3:55 AM 73.4 °F - 73.4 °F 100% 29.97 in 4.0 mi South 17.3 mph - N/A   Overcast
4:15 AM 73.4 °F - 71.6 °F 94% 29.97 in 1.0 mi South 13.8 mph - N/A   Overcast
4:35 AM 73.4 °F - 71.6 °F 94% 29.97 in 0.5 mi South 13.8 mph - N/A Fog Fog
4:55 AM 73.4 °F - 71.6 °F 94% 29.97 in 1.0 mi South 17.3 mph - N/A   Overcast
5:15 AM 71.6 °F - 71.6 °F 100% 29.96 in - South 17.3 mph - N/A   Overcast
5:35 AM 71.6 °F - 71.6 °F 100% 29.98 in 0.2 mi South 12.7 mph - N/A Fog Fog
5:55 AM 75.2 °F - 73.4 °F 94% 29.98 in 2.5 mi South 12.7 mph - N/A   Overcast
6:15 AM 73.4 °F - 71.6 °F 94% 29.98 in 1.5 mi South 15.0 mph - N/A   Overcast
6:35 AM 75.2 °F - 71.6 °F 89% 29.99 in 1.2 mi South 12.7 mph - N/A   Overcast
6:55 AM 73.4 °F - 71.6 °F 94% 30.00 in 0.8 mi South 13.8 mph - N/A   Overcast
7:15 AM 75.2 °F - 73.4 °F 94% 30.01 in 1.8 mi South 12.7 mph - N/A   Overcast
7:35 AM 73.4 °F - 71.6 °F 94% 30.02 in 3.0 mi South 9.2 mph - N/A   Overcast
7:55 AM 73.4 °F - 71.6 °F 94% 30.02 in 4.0 mi South 11.5 mph - N/A   Mostly Cloudy
8:15 AM 73.4 °F - 71.6 °F 94% 30.03 in 1.0 mi South 10.4 mph - N/A   Overcast
8:35 AM 73.4 °F - 71.6 °F 94% 30.04 in 5.0 mi SSE 8.1 mph - N/A   Mostly Cloudy
8:55 AM 73.4 °F - 71.6 °F 94% 30.05 in 0.5 mi South 8.1 mph - N/A   Overcast
9:15 AM 77.0 °F - 73.4 °F 89% 30.05 in 6.0 mi South 13.8 mph - N/A   Mostly Cloudy
9:35 AM 78.8 °F - 73.4 °F 83% 30.05 in 9.0 mi South 15.0 mph - N/A   Mostly Cloudy
9:55 AM 78.8 °F - 73.4 °F 83% 30.05 in 7.0 mi South 13.8 mph - N/A   Mostly Cloudy
10:15 AM 80.6 °F 85.4 °F 73.4 °F 79% 30.05 in 6.0 mi South 13.8 mph - N/A   Haze
10:35 AM 78.8 °F - 73.4 °F 83% 30.05 in 9.0 mi South 12.7 mph - N/A   Overcast
10:50 AM 78.8 °F - 71.6 °F 78% 30.04 in 7.0 mi South 13.8 mph - N/A   Mostly Cloudy
11:15 AM 78.8 °F - 71.6 °F 78% 30.04 in 7.0 mi South 13.8 mph - N/A   Scattered Clouds
11:30 AM 77.0 °F - 71.6 °F 83% 30.04 in 9.0 mi South 15.0 mph - N/A   Partly Cloudy
11:55 AM 78.8 °F - 73.4 °F 83% 30.03 in 9.0 mi South 16.1 mph - N/A   Mostly Cloudy
12:15 PM 75.2 °F - 73.4 °F 94% 30.02 in 8.0 mi South 15.0 mph - N/A   Overcast
12:35 PM 75.2 °F - 73.4 °F 94% 30.02 in 6.0 mi SSW 13.8 mph - N/A   Overcast
12:55 PM 75.2 °F - 73.4 °F 94% 30.02 in - SSW 11.5 mph - N/A   Unknown
1:15 PM 73.4 °F - 73.4 °F 100% 30.02 in 5.0 mi SSW 11.5 mph - N/A   Overcast
1:35 PM 75.2 °F - 73.4 °F 94% 30.00 in 7.0 mi South 15.0 mph - N/A   Overcast
1:55 PM 77.0 °F - 73.4 °F 89% 30.00 in 8.0 mi South 15.0 mph - N/A   Overcast